New Iberia, LA

5:34 AM CST on February 24, 2017 (GMT -0600)
Acadiana Regional

Weather History for KARA - September, 2013

Change the Weather History Date:

Wednesday, September 4, 2013

  Actual Average Record
Temperature  
Mean Temperature 86 °F 81 °F  
Max Temperature 97 °F 91 °F 103 °F (2000)
Min Temperature 75 °F 72 °F 54 °F (1952)
Degree Days  
Heating Degree Days 0 0  
Month to date heating degree days 0 0  
Since 1 July heating degree days 0 0  
Cooling Degree Days 21 16  
Month to date cooling degree days 86 67  
Year to date cooling degree days 2406 2210  
Growing Degree Days 36 (Base 50)    
Moisture  
Dew Point 74 °F    
Average Humidity 68    
Maximum Humidity 91    
Minimum Humidity 45    
Precipitation  
Precipitation 0.05 in 0.16 in 3.07 in (2016)
Month to date precipitation 0.06 0.64  
Year to date precipitation 53.13 41.49  
Sea Level Pressure  
Sea Level Pressure 30.02 in    
Wind  
Wind Speed 2 mph (NNW)    
Max Wind Speed 23 mph    
Max Gust Speed 26 mph    
Visibility 10 miles    
Events Rain , Thunderstorm    
T = Trace of Precipitation, MM = Missing Value Source: NWS Daily Summary

Daily Weather History Graph

Daily Weather History Graph

Search for Another Location

Airport or City:

Trip Planner

Search our weather history database for the weather conditions in past years. The results will help you decide how hot, cold, wet, or windy it might be!

Date:

Astronomy

Sep. 04, 2013 Rise Set
Actual Time 6:46 AM CDT 7:26 PM CDT
Civil Twilight 6:22 AM CDT 7:50 PM CDT
Nautical Twilight 5:53 AM CDT 8:18 PM CDT
Astronomical Twilight 5:24 AM CDT 8:47 PM CDT
Moon 5:58 AM CDT (9/4) 6:48 PM CDT (9/4)
Length of Visible Light 13h 28m
Length of Day
12h 39m
Waning Crescent, 1% of the Moon is Illuminated
Sep 4
Waning Crescent
Sep 5
New
Sep 12
First Quarter
Sep 19
Full
Sep 26
Last Quarter

Hourly Weather History & Observations

Time (CDT) Temp. Heat Index Dew Point Humidity Pressure Visibility Wind Dir Wind Speed Gust Speed Precip Events Conditions
12:53 AM 77.0 °F - 73.0 °F 88% 29.96 in 10.0 mi Calm Calm - N/A   Clear
1:53 AM 77.0 °F - 73.0 °F 88% 29.96 in 10.0 mi Calm Calm - N/A   Clear
2:53 AM 77.0 °F - 73.0 °F 88% 29.96 in 10.0 mi Calm Calm - N/A   Clear
3:53 AM 75.9 °F - 72.0 °F 87% 29.97 in 10.0 mi SE 4.6 mph - N/A   Clear
4:53 AM 77.0 °F - 72.0 °F 84% 29.97 in 10.0 mi Calm Calm - N/A   Clear
5:53 AM 75.9 °F - 72.0 °F 87% 29.99 in 10.0 mi Calm Calm - N/A   Clear
6:53 AM 75.0 °F - 72.0 °F 90% 30.00 in 9.0 mi Calm Calm - N/A   Clear
7:53 AM 80.1 °F 84.5 °F 73.9 °F 81% 30.03 in 10.0 mi Calm Calm - N/A   Clear
8:53 AM 84.0 °F 90.2 °F 73.0 °F 69% 30.04 in 10.0 mi Calm Calm - N/A   Clear
9:53 AM 88.0 °F 98.5 °F 75.9 °F 67% 30.06 in 10.0 mi Calm Calm - N/A   Clear
10:38 AM 89.6 °F 99.8 °F 75.2 °F 62% 30.07 in 10.0 mi Calm Calm - N/A   Mostly Cloudy
10:53 AM 91.0 °F 102.9 °F 75.9 °F 61% 30.06 in 10.0 mi NW 5.8 mph - N/A   Mostly Cloudy
11:20 AM 91.4 °F 102.5 °F 75.2 °F 59% 30.06 in 10.0 mi North 3.5 mph - N/A   Partly Cloudy
11:53 AM 91.9 °F 101.3 °F 73.9 °F 55% 30.05 in 10.0 mi Calm Calm - N/A   Scattered Clouds
12:53 PM 95.0 °F 104.5 °F 73.0 °F 49% 30.04 in 10.0 mi East 5.8 mph - N/A   Clear
1:53 PM 96.1 °F 104.9 °F 72.0 °F 46% 30.02 in 10.0 mi NNE 8.1 mph - N/A   Clear
2:53 PM 95.0 °F 105.2 °F 73.9 °F 50% 29.99 in 10.0 mi ENE 4.6 mph - N/A   Mostly Cloudy
3:53 PM 89.1 °F 98.0 °F 73.9 °F 61% 29.99 in 10.0 mi WSW 11.5 mph - N/A   Overcast
4:07 PM 89.6 °F 98.2 °F 73.4 °F 59% 29.99 in 10.0 mi West 12.7 mph 19.6 mph N/A Thunderstorm Thunderstorm
4:45 PM 82.4 °F 87.2 °F 71.6 °F 70% 30.01 in 10.0 mi South 13.8 mph - N/A Thunderstorm Thunderstorm
4:53 PM 80.1 °F 84.2 °F 73.0 °F 79% 30.00 in 5.0 mi South 8.1 mph - 0.00 in Rain , Thunderstorm Thunderstorms and Rain
5:53 PM 81.0 °F 86.2 °F 73.9 °F 79% 30.02 in 10.0 mi WNW 3.5 mph - 0.05 in Thunderstorm Thunderstorm
6:53 PM 81.0 °F 86.7 °F 75.0 °F 82% 30.02 in 10.0 mi Calm Calm - N/A Thunderstorm Thunderstorm
7:53 PM 81.0 °F 86.2 °F 73.9 °F 79% 30.02 in 10.0 mi NE 4.6 mph - N/A Thunderstorm Thunderstorm
8:53 PM 79.0 °F - 75.0 °F 88% 30.03 in 9.0 mi Calm Calm - N/A Thunderstorm Thunderstorm
9:53 PM 79.0 °F - 75.0 °F 88% 30.05 in 10.0 mi Calm Calm - N/A   Clear
10:53 PM 80.1 °F 84.5 °F 73.9 °F 81% 30.06 in 10.0 mi Calm Calm - N/A   Clear
11:53 PM 78.1 °F - 73.9 °F 87% 30.05 in 10.0 mi Calm Calm - N/A   Clear